TimeCDT,TemperatureF,Dew PointF,Humidity,Sea Level PressureIn,VisibilityMPH,Wind Direction,Wind SpeedMPH,Gust SpeedMPH,PrecipitationIn,Events,Conditions,WindDirDegrees,DateUTC
12:53 AM,64.9,57.0,75,30.01,10.0,SW,3.5,-,N/A,,Clear,220,2013-06-20 05:53:00
1:53 AM,60.1,55.9,86,30.00,10.0,SSW,4.6,-,N/A,,Clear,200,2013-06-20 06:53:00
2:53 AM,61.0,55.9,83,30.00,10.0,SSW,5.8,-,N/A,,Clear,210,2013-06-20 07:53:00
3:53 AM,60.1,55.9,86,30.02,10.0,SW,3.5,-,N/A,,Clear,220,2013-06-20 08:53:00
4:53 AM,57.9,55.9,93,30.00,10.0,Calm,Calm,-,N/A,,Partly Cloudy,0,2013-06-20 09:53:00
5:53 AM,60.1,57.0,90,30.02,10.0,NE,3.5,-,N/A,,Clear,50,2013-06-20 10:53:00
6:53 AM,64.0,60.1,87,30.03,10.0,Calm,Calm,-,N/A,,Clear,0,2013-06-20 11:53:00
7:34 AM,62.6,57.2,82,30.04,10.0,North,8.1,-,N/A,Thunderstorm,Partly Cloudy,360,2013-06-20 12:34:00
7:53 AM,62.1,57.0,84,30.05,9.0,NNW,4.6,-,N/A,Thunderstorm,Thunderstorm,340,2013-06-20 12:53:00
8:53 AM,61.0,59.0,93,30.06,8.0,Calm,Calm,-,0.02,Rain-Thunderstorm,Light Thunderstorms and Rain,0,2013-06-20 13:53:00
9:13 AM,60.8,59.0,94,30.06,2.5,East,4.6,-,0.06,Rain,Light Rain,80,2013-06-20 14:13:00
9:21 AM,60.8,59.0,94,30.06,7.0,ENE,3.5,-,0.06,Rain,Light Rain,70,2013-06-20 14:21:00
9:53 AM,64.0,61.0,90,30.07,10.0,ENE,3.5,-,0.06,,Scattered Clouds,70,2013-06-20 14:53:00
10:13 AM,62.6,60.8,94,30.08,10.0,NNE,11.5,-,N/A,,Scattered Clouds,20,2013-06-20 15:13:00
10:53 AM,66.0,61.0,84,30.06,10.0,NE,10.4,-,N/A,,Scattered Clouds,50,2013-06-20 15:53:00
11:53 AM,70.0,62.1,76,30.07,10.0,ENE,11.5,-,N/A,,Clear,70,2013-06-20 16:53:00
12:53 PM,69.1,63.0,81,30.06,10.0,North,6.9,-,N/A,,Scattered Clouds,360,2013-06-20 17:53:00
1:33 PM,62.6,60.8,94,30.06,2.0,NNE,9.2,-,0.10,Rain-Thunderstorm,Heavy Rain,20,2013-06-20 18:33:00
1:40 PM,62.6,60.8,94,30.06,1.0,North,10.4,-,0.14,Rain-Thunderstorm,Rain,360,2013-06-20 18:40:00
1:45 PM,62.6,60.8,94,30.06,2.5,North,11.5,-,0.15,Rain,Light Rain,360,2013-06-20 18:45:00
1:53 PM,62.1,60.1,93,30.06,4.0,NNE,8.1,-,0.17,Rain,Rain,20,2013-06-20 18:53:00
2:07 PM,62.6,60.8,94,30.07,2.0,North,10.4,-,0.06,Rain,Rain,360,2013-06-20 19:07:00
2:29 PM,60.8,60.8,100,30.05,3.0,NE,10.4,-,0.12,Rain,Light Rain,40,2013-06-20 19:29:00
2:39 PM,60.8,60.8,100,30.05,4.0,NE,9.2,-,0.13,Rain,Light Rain,50,2013-06-20 19:39:00
2:53 PM,61.0,60.1,97,30.07,2.5,NE,5.8,-,0.17,Rain,Rain,40,2013-06-20 19:53:00
3:04 PM,62.6,60.8,94,30.07,2.5,NNE,5.8,-,0.03,Rain-Thunderstorm,Light Rain,30,2013-06-20 20:04:00
3:39 PM,62.6,60.8,94,30.08,1.8,NE,6.9,-,0.20,Rain-Thunderstorm,Heavy Rain,50,2013-06-20 20:39:00
3:46 PM,62.6,60.8,94,30.07,2.0,ENE,5.8,-,0.24,Rain,Rain,70,2013-06-20 20:46:00
3:53 PM,62.1,61.0,96,30.07,2.0,ENE,4.6,-,0.28,Rain,Rain,70,2013-06-20 20:53:00
4:13 PM,62.6,60.8,94,30.06,4.0,ENE,9.2,-,0.03,Rain,Light Rain,70,2013-06-20 21:13:00
4:53 PM,61.0,60.1,97,30.08,8.0,NNE,6.9,-,0.04,,Overcast,30,2013-06-20 21:53:00
5:22 PM,59.0,57.2,94,30.09,1.8,Variable,4.6,-,0.02,Rain,Rain,0,2013-06-20 22:22:00
5:44 PM,59.0,57.2,94,30.07,2.5,NE,8.1,-,0.08,Rain,Light Rain,50,2013-06-20 22:44:00
5:53 PM,60.1,57.9,93,30.07,3.0,NE,5.8,-,0.10,Rain,Light Rain,50,2013-06-20 22:53:00
6:51 PM,60.8,59.0,94,30.06,1.8,North,5.8,-,0.06,,Overcast,360,2013-06-20 23:51:00
6:53 PM,60.1,57.9,93,30.07,1.2,North,4.6,-,0.06,,Overcast,10,2013-06-20 23:53:00
7:35 PM,57.2,55.4,94,30.08,0.5,NNW,5.8,-,0.03,Fog-Rain,Rain,330,2013-06-21 00:35:00
7:53 PM,57.0,55.9,96,30.05,1.2,East,8.1,-,0.09,Rain,Rain,100,2013-06-21 00:53:00
8:00 PM,57.2,55.4,94,30.05,1.2,ESE,4.6,-,0.01,Rain,Light Rain,110,2013-06-21 01:00:00
8:07 PM,57.2,57.2,100,30.06,3.0,Calm,Calm,-,0.01,Rain,Light Rain,0,2013-06-21 01:07:00
8:15 PM,57.2,57.2,100,30.06,4.0,North,3.5,-,0.01,,Overcast,10,2013-06-21 01:15:00
8:46 PM,57.2,55.4,94,30.04,1.8,Calm,Calm,-,0.01,,Overcast,0,2013-06-21 01:46:00
8:53 PM,57.0,55.9,96,30.05,1.2,North,4.6,-,0.01,,Overcast,350,2013-06-21 01:53:00
9:13 PM,57.2,55.4,94,30.07,0.8,North,12.7,-,N/A,,Mist,350,2013-06-21 02:13:00
9:27 PM,57.2,55.4,94,30.05,2.0,ESE,3.5,-,N/A,,Overcast,110,2013-06-21 02:27:00
9:35 PM,57.2,55.4,94,30.06,5.0,Calm,Calm,-,0.00,Rain,Light Rain,0,2013-06-21 02:35:00
9:49 PM,57.2,57.2,100,30.07,1.5,SSE,3.5,-,0.16,Rain,Heavy Rain,160,2013-06-21 02:49:00
9:53 PM,57.9,57.0,97,30.06,1.0,SSE,4.6,-,0.22,Rain,Heavy Rain,160,2013-06-21 02:53:00
10:01 PM,57.2,57.2,100,30.06,3.0,Calm,Calm,-,0.00,Rain,Light Rain,0,2013-06-21 03:01:00
10:17 PM,57.2,57.2,100,30.05,4.0,Calm,Calm,-,0.00,,Overcast,0,2013-06-21 03:17:00
10:53 PM,57.9,57.0,97,30.05,4.0,NNE,3.5,-,0.00,,Overcast,30,2013-06-21 03:53:00
11:23 PM,59.0,57.2,94,30.05,1.5,NNE,9.2,-,N/A,,Overcast,20,2013-06-21 04:23:00
11:28 PM,59.0,57.2,94,30.04,0.5,East,5.8,-,N/A,Fog,Fog,80,2013-06-21 04:28:00
11:53 PM,59.0,57.9,96,30.04,1.0,ENE,4.6,-,N/A,,Overcast,60,2013-06-21 04:53:00